GW1995 Weather Reports


Display with metric or nautical units.
time (UTC)temp
F
wind
direction
speed
MPH
gust
MPH
rain 1hr
in
rain 24hr
in
rain mn
in
humidity
%
barometer
mb
20260504000204 69 238 2.0 5.0 0.00 0.00 0.00 24 1003.9
20260503235701 70 254 2.0 6.0 0.00 0.00 0.00 24 1004.1
20260503235157 70 271 0.0 5.0 0.00 0.00 0.00 23 1004.0
20260503234655 70 274 2.0 7.0 0.00 0.00 0.00 24 1003.9
20260503234153 70 241 1.0 3.0 0.00 0.00 0.00 24 1004.1
20260503233649 70 269 2.0 5.0 0.00 0.00 0.00 23 1004.2
20260503233145 71 251 3.0 6.0 0.00 0.00 0.00 22 1004.1
20260503232642 70 218 3.0 5.0 0.00 0.00 0.00 23 1004.2
20260503232140 71 288 3.0 6.0 0.00 0.00 0.00 24 1004.2
20260503231638 70 244 2.0 5.0 0.00 0.00 0.00 24 1004.2
20260503231134 71 229 3.0 5.0 0.00 0.00 0.00 25 1004.2
20260503230631 70 240 4.0 6.0 0.00 0.00 0.00 24 1004.2
20260503230128 70 297 4.0 6.0 0.00 0.00 0.00 24 1004.3
20260503225626 71 300 1.0 7.0 0.00 0.00 0.00 24 1004.3
20260503225125 71 274 5.0 10.0 0.00 0.00 0.00 25 1004.2
20260503224623 71 244 2.0 3.0 0.00 0.00 0.00 26 1004.2
20260503224121 71 295 3.0 5.0 0.00 0.00 0.00 25 1004.2
20260503223618 71 279 2.0 7.0 0.00 0.00 0.00 26 1004.3
20260503223114 71 285 3.0 5.0 0.00 0.00 0.00 25 1004.5
20260503222612 71 275 4.0 6.0 0.00 0.00 0.00 23 1004.5
20260503222109 71 278 3.0 7.0 0.00 0.00 0.00 25 1004.5
20260503221608 72 274 5.0 7.0 0.00 0.00 0.00 25 1004.3
20260503221105 71 312 3.0 7.0 0.00 0.00 0.00 27 1004.4
20260503220601 72 257 5.0 7.0 0.00 0.00 0.00 26 1004.2
20260503220058 72 223 1.0 5.0 0.00 0.00 0.00 27 1004.3
20260503215555 71 244 3.0 6.0 0.00 0.00 0.00 26 1004.4
20260503215052 71 258 4.0 8.0 0.00 0.00 0.00 26 1004.3
20260503214550 72 286 4.0 7.0 0.00 0.00 0.00 24 1004.3
20260503214046 71 244 4.0 8.0 0.00 0.00 0.00 24 1004.4
20260503213545 72 280 4.0 6.0 0.00 0.00 0.00 24 1004.5
20260503213041 71 258 2.0 3.0 0.00 0.00 0.00 24 1004.4
20260503212539 71 349 3.0 5.0 0.00 0.00 0.00 24 1004.3
20260503212036 71 280 4.0 9.0 0.00 0.00 0.00 23 1004.5
20260503211533 71 254 3.0 5.0 0.00 0.00 0.00 25 1004.5
20260503211028 71 267 2.0 8.0 0.00 0.00 0.00 24 1004.6
20260503210525 71 334 4.0 10.0 0.00 0.00 0.00 23 1004.7
20260503210021 70 279 1.0 3.0 0.00 0.00 0.00 23 1004.4
20260503205518 72 292 4.0 9.0 0.00 0.00 0.00 22 1004.6
20260503205015 71 306 4.0 7.0 0.00 0.00 0.00 23 1004.5
20260503204512 71 245 4.0 7.0 0.00 0.00 0.00 24 1004.7
20260503204008 72 253 4.0 8.0 0.00 0.00 0.00 23 1004.7
20260503203506 72 259 1.0 5.0 0.00 0.00 0.00 23 1004.7
20260503203003 70 251 4.0 7.0 0.00 0.00 0.00 23 1004.9
20260503202500 72 215 4.0 8.0 0.00 0.00 0.00 22 1004.9
20260503201958 72 223 5.0 6.0 0.00 0.00 0.00 24 1004.6
20260503201456 71 289 5.0 14.0 0.00 0.00 0.00 24 1005.0
20260503200953 71 272 4.0 6.0 0.00 0.00 0.00 25 1005.0
20260503200449 70 283 4.0 6.0 0.00 0.00 0.00 24 1005.0
20260503195946 71 275 5.0 13.0 0.00 0.00 0.00 25 1005.2
20260503195443 70 331 5.0 7.0 0.00 0.00 0.00 28 1005.2
20260503194940 71 2 4.0 5.0 0.00 0.00 0.00 28 1005.1
20260503194437 71 272 4.0 8.0 0.00 0.00 0.00 28 1005.3
20260503193932 71 245 2.0 7.0 0.00 0.00 0.00 30 1005.2
20260503193428 70 291 3.0 8.0 0.00 0.00 0.00 29 1005.2
20260503192923 70 345 5.0 10.0 0.00 0.00 0.00 29 1005.0
20260503192420 71 0 6.0 8.0 0.00 0.00 0.00 29 1005.2
20260503191916 70 321 5.0 6.0 0.00 0.00 0.00 29 1005.2
20260503191414 70 224 2.0 10.0 0.00 0.00 0.00 33 1005.3
20260503190910 71 287 5.0 7.0 0.00 0.00 0.00 34 1005.1
20260503190408 70 279 5.0 8.0 0.00 0.00 0.00 34 1005.0
20260503185904 69 227 4.0 8.0 0.00 0.00 0.00 33 1005.0
20260503185401 70 267 5.0 7.0 0.00 0.00 0.00 34 1005.4
20260503184900 70 236 4.0 8.0 0.00 0.00 0.00 33 1005.3
20260503184356 70 288 7.0 9.0 0.00 0.00 0.00 32 1005.4
20260503183852 70 303 3.0 5.0 0.00 0.00 0.00 33 1005.6
20260503183350 69 281 5.0 9.0 0.00 0.00 0.00 34 1005.4
20260503182847 69 18 2.0 7.0 0.00 0.00 0.00 36 1005.3
20260503182346 69 301 5.0 7.0 0.00 0.00 0.00 36 1005.3
20260503181842 69 304 6.0 11.0 0.00 0.00 0.00 36 1005.5
20260503181339 69 278 4.0 11.0 0.00 0.00 0.00 35 1005.3
20260503180836 68 262 5.0 6.0 0.00 0.00 0.00 36 1005.5
20260503180334 68 279 3.0 8.0 0.00 0.00 0.00 36 1005.4
20260503175830 69 0 5.0 8.0 0.00 0.00 0.00 34 1005.6
20260503175328 68 289 2.0 6.0 0.00 0.00 0.00 34 1005.8
20260503174823 68 262 4.0 8.0 0.00 0.00 0.00 35 1005.7
20260503174322 68 244 3.0 7.0 0.00 0.00 0.00 33 1005.7
20260503173817 68 311 4.0 8.0 0.00 0.00 0.00 35 1005.8
20260503173314 68 319 5.0 8.0 0.00 0.00 0.00 35 1005.7
20260503172810 68 267 2.0 7.0 0.00 0.00 0.00 35 1005.8
20260503172308 68 268 4.0 9.0 0.00 0.00 0.00 34 1005.8
20260503171804 68 335 8.0 9.0 0.00 0.00 0.00 35 1005.9
20260503171301 67 341 2.0 6.0 0.00 0.00 0.00 37 1005.9
20260503170758 68 303 3.0 8.0 0.00 0.00 0.00 36 1006.0
20260503170254 67 302 3.0 9.0 0.00 0.00 0.00 36 1005.8
20260503160217 65 314 7.0 10.0 0.00 0.00 0.00 40 1005.7
20260503150647 62 45 3.0 6.0 0.00 0.00 0.00 44 1005.5
20260503150143 62 311 2.0 7.0 0.00 0.00 0.00 44 1005.4
20260503140107 59 247 2.0 2.0 0.00 0.00 0.00 45 1005.4
20260503131037 56 224 1.0 2.0 0.00 0.00 0.00 51 1005.0
20260503130534 55 245 1.0 2.0 0.00 0.00 0.00 50 1004.9
20260503110425 51 208 1.0 1.0 0.00 0.00 0.00 56 1004.3
20260503090310 57 188 3.0 3.0 0.00 0.00 0.00 44 1004.9
20260503081237 57 223 2.0 7.0 0.00 0.00 0.00 48 1005.4
20260503080732 57 193 1.0 3.0 0.00 0.00 0.00 50 1005.3
20260503080230 57 214 3.0 3.0 0.00 0.00 0.00 51 1005.3
20260503072707 55 204 2.0 2.0 0.00 0.00 0.00 54 1006.1
20260503072203 56 207 1.0 5.0 0.00 0.00 0.00 53 1006.2
20260503071700 55 190 3.0 3.0 0.00 0.00 0.00 53 1006.3
20260503071157 55 186 2.0 2.0 0.00 0.00 0.00 55 1006.4
20260503070653 55 189 2.0 3.0 0.00 0.00 0.00 56 1006.4
20260503070152 55 198 2.0 3.0 0.00 0.00 0.00 54 1006.7
20260503060116 56 219 2.0 3.0 0.00 0.00 0.00 48 1007.7
20260503055108 57 200 3.0 5.0 0.00 0.00 0.00 47 1007.6
20260503054603 57 215 1.0 2.0 0.00 0.00 0.00 47 1007.6
20260503054100 57 193 4.0 6.0 0.00 0.00 0.00 47 1007.5
20260503053558 57 211 2.0 2.0 0.00 0.00 0.00 47 1007.7
20260503053056 57 201 2.0 3.0 0.00 0.00 0.00 47 1008.0
20260503052552 57 201 1.0 2.0 0.00 0.00 0.00 47 1007.6
20260503052049 58 224 0.0 2.0 0.00 0.00 0.00 47 1007.8
20260503051544 58 213 1.0 3.0 0.00 0.00 0.00 47 1008.0
20260503051043 58 203 1.0 3.0 0.00 0.00 0.00 48 1007.7
20260503050538 58 186 2.0 2.0 0.00 0.00 0.00 47 1008.0
20260503050036 58 194 2.0 2.0 0.00 0.00 0.00 47 1008.1
20260503045532 58 195 1.0 2.0 0.00 0.00 0.00 48 1007.8
20260503045030 58 199 1.0 2.0 0.00 0.00 0.00 47 1008.1
20260503044526 58 215 1.0 2.0 0.00 0.00 0.00 47 1008.1
20260503044024 58 219 1.0 1.0 0.00 0.00 0.00 47 1008.3
20260503043520 59 195 1.0 2.0 0.00 0.00 0.00 47 1008.3
20260503043017 59 204 1.0 2.0 0.00 0.00 0.00 46 1008.5
20260503042514 59 208 1.0 1.0 0.00 0.00 0.00 47 1008.5
20260503042010 59 216 1.0 2.0 0.00 0.00 0.00 46 1008.5
20260503041507 59 197 1.0 2.0 0.00 0.00 0.00 45 1008.7
20260503041005 59 198 3.0 3.0 0.00 0.00 0.00 45 1008.6
20260503040502 60 204 1.0 3.0 0.00 0.00 0.00 45 1008.9
20260503035959 60 180 3.0 3.0 0.00 0.00 0.00 44 1009.0
20260503035455 60 197 2.0 3.0 0.00 0.00 0.00 43 1008.9
20260503034953 60 197 1.0 5.0 0.00 0.00 0.00 42 1009.1
20260503034450 60 190 3.0 3.0 0.00 0.00 0.00 42 1009.1
20260503033947 60 210 2.0 2.0 0.00 0.00 0.00 43 1009.3
20260503033444 60 221 1.0 3.0 0.00 0.00 0.00 43 1009.4
20260503032943 60 189 3.0 5.0 0.00 0.00 0.00 43 1009.6
20260503032441 60 180 2.0 3.0 0.00 0.00 0.00 43 1009.5
20260503031938 60 223 1.0 2.0 0.00 0.00 0.00 43 1009.5
20260503031436 61 192 2.0 3.0 0.00 0.00 0.00 42 1009.6
20260503030932 61 218 1.0 2.0 0.00 0.00 0.00 41 1009.8
20260503030429 61 222 1.0 1.0 0.00 0.00 0.00 40 1010.0
20260503025926 61 227 2.0 3.0 0.00 0.00 0.00 40 1010.0
20260503025422 62 231 1.0 2.0 0.00 0.00 0.00 40 1010.1
20260503024920 62 232 1.0 5.0 0.00 0.00 0.00 40 1010.2
20260503024417 62 207 6.0 9.0 0.00 0.00 0.00 39 1010.2
20260503023914 62 255 3.0 8.0 0.00 0.00 0.00 39 1010.4
20260503023410 62 186 5.0 7.0 0.00 0.00 0.00 39 1010.4
20260503022908 61 224 2.0 7.0 0.00 0.00 0.00 40 1010.2
20260503022402 61 243 0.0 1.0 0.00 0.00 0.00 41 1010.4
20260503021858 61 217 1.0 3.0 0.00 0.00 0.00 41 1010.5
20260503021354 61 226 2.0 2.0 0.00 0.00 0.00 40 1010.4
20260503020851 61 225 2.0 2.0 0.00 0.00 0.00 40 1010.5
20260503020350 61 264 1.0 2.0 0.00 0.00 0.00 40 1010.5
20260503015845 62 224 1.0 2.0 0.00 0.00 0.00 40 1010.4
20260503015337 62 194 2.0 5.0 0.00 0.00 0.00 39 1010.5
20260503014833 62 204 3.0 5.0 0.00 0.00 0.00 39 1010.4
20260503014331 62 237 3.0 5.0 0.00 0.00 0.00 39 1010.6
20260503013828 63 237 1.0 7.0 0.00 0.00 0.00 37 1010.5
20260503013325 62 247 2.0 3.0 0.00 0.00 0.00 39 1010.7
20260503012822 62 254 2.0 2.0 0.00 0.00 0.00 39 1010.5
20260503012320 63 222 2.0 3.0 0.00 0.00 0.00 38 1010.4
20260503011816 63 203 3.0 7.0 0.00 0.00 0.00 38 1010.6
20260503011313 63 205 4.0 6.0 0.00 0.00 0.00 37 1010.4
20260503010809 63 227 2.0 3.0 0.00 0.00 0.00 37 1010.8
20260503010307 63 242 3.0 3.0 0.00 0.00 0.00 37 1010.6
20260503005804 63 257 4.0 6.0 0.00 0.00 0.00 36 1010.6
20260503005304 64 258 3.0 5.0 0.00 0.00 0.00 37 1010.5
20260503004757 64 287 3.0 3.0 0.00 0.00 0.00 36 1010.7
20260503004255 64 240 3.0 3.0 0.00 0.00 0.00 35 1010.7
20260503003752 64 238 1.0 2.0 0.00 0.00 0.00 35 1010.5
20260503003249 64 216 3.0 5.0 0.00 0.00 0.00 35 1010.5
20260503002746 64 254 2.0 6.0 0.00 0.00 0.00 35 1010.4
20260503002243 64 226 4.0 6.0 0.00 0.00 0.00 33 1010.6
20260503001739 64 227 3.0 6.0 0.00 0.00 0.00 33 1010.4
20260503001235 64 218 1.0 2.0 0.00 0.00 0.00 33 1010.4
20260503000734 64 240 0.0 2.0 0.00 0.00 0.00 34 1010.4